Tracking 25744 objects as of 24-Jun-2022
HD Live streaming from Space Station
objects crossing your sky now

SL-8 DEB

Track SL-8 DEB now!
10-day predictions


NORAD ID: 6065
Int'l Code: 1972-043D
Perigee: 645.5 km
Apogee: 666.1 km
Inclination: 74.1 °
Period: 97.7 minutes
Semi major axis: 7026 km
RCS: 0.0066 m2 (small)
Launch date: June 23, 1972
Source: Commonwealth of Independent States (former USSR) (CIS)
Launch site: PLESETSK MISSILE AND SPACE COMPLEX (PKMTR)

Note: This is SATELLITE DEBRIS
aabbcc
Your satellite tracking list
Your tracking list is empty




NASA's NSSDC Master Catalog

Two Line Element Set (TLE):
1 06065U 72043D   22175.47384806  .00001539  00000-0  23940-3 0  9999
2 06065  74.0663 192.9171 0014612 270.9263  89.0236 14.73893540641966
Source of the keplerian elements: AFSPC